• En España
  • Lista de países
  • Para 7 días
  • Temperatura del agua
  • Mapa Satelital
  • El tiempo en el mapa
  • Informadores
  • user-avatar
    Iniciar sesión

    Tiempo cada hora Kerns

    Hoy, 20 Octubre, Viernes

    Tiempo Temperatura Precipitaciones Viento Presión Humedad
    00:00 +25°C° 0,3 mm 3 mps 760 mmHg 95%
    01:00 +25°C° 0,3 mm 3 mps 760 mmHg 96%
    02:00 +25°C° 0,4 mm 3 mps 760 mmHg 96%
    03:00 +25°C° 0,4 mm 3 mps 759 mmHg 96%
    04:00 +25°C° 0 mm 4 mps 759 mmHg 96%
    05:00 +25°C° 0,4 mm 4 mps 759 mmHg 94%
    06:00 +26°C° 0,4 mm 4 mps 760 mmHg 93%
    07:00 +26°C° 0,4 mm 4 mps 760 mmHg 91%
    08:00 +27°C° 0,8 mm 4 mps 760 mmHg 87%
    09:00 +28°C° 0,8 mm 5 mps 761 mmHg 83%
    10:00 +29°C° 0 mm 5 mps 761 mmHg 81%
    11:00 +29°C° 0,5 mm 5 mps 761 mmHg 80%
    12:00 +29°C° 0,5 mm 5 mps 760 mmHg 78%
    13:00 +30°C° 0,5 mm 5 mps 760 mmHg 76%
    14:00 +29°C° 0,4 mm 5 mps 760 mmHg 78%
    15:00 +29°C° 0,4 mm 5 mps 759 mmHg 79%
    16:00 +29°C° 0,4 mm 5 mps 759 mmHg 81%
    17:00 +28°C° 0,4 mm 5 mps 759 mmHg 84%
    18:00 +27°C° 0,4 mm 4 mps 759 mmHg 88%
    19:00 +26°C° 0,4 mm 4 mps 760 mmHg 92%
    20:00 +26°C° 0,5 mm 4 mps 760 mmHg 93%
    21:00 +26°C° 0,5 mm 4 mps 760 mmHg 94%
    22:00 +26°C° 0,5 mm 4 mps 761 mmHg 95%
    23:00 +26°C° 0,4 mm 4 mps 760 mmHg 95%

    Mañana, 21 Octubre, Sábado

    Tiempo Temperatura Precipitaciones Viento Presión Humedad
    00:00 +25°C° 0,4 mm 4 mps 760 mmHg 95%
    01:00 +25°C° 0,4 mm 4 mps 759 mmHg 95%
    02:00 +25°C° 0,1 mm 3 mps 759 mmHg 96%
    03:00 +25°C° 0,1 mm 3 mps 759 mmHg 96%
    04:00 +25°C° 0,1 mm 3 mps 759 mmHg 96%
    05:00 +25°C° 0,1 mm 3 mps 759 mmHg 95%
    06:00 +25°C° 0,1 mm 3 mps 759 mmHg 93%
    07:00 +26°C° 0,1 mm 3 mps 759 mmHg 92%
    08:00 +27°C° 0,1 mm 3 mps 759 mmHg 86%
    09:00 +28°C° 0,1 mm 2 mps 759 mmHg 80%
    10:00 +30°C° 0,1 mm 2 mps 760 mmHg 74%
    11:00 +30°C° 0,7 mm 2 mps 759 mmHg 72%
    12:00 +31°C° 0,7 mm 3 mps 758 mmHg 70%
    13:00 +33°C° 0,7 mm 3 mps 758 mmHg 68%
    14:00 +31°C° 0,6 mm 3 mps 757 mmHg 72%
    15:00 +30°C° 0,6 mm 3 mps 756 mmHg 75%
    16:00 +30°C° 0,6 mm 2 mps 756 mmHg 79%
    17:00 +29°C° 0,2 mm 2 mps 756 mmHg 83%
    18:00 +28°C° 0,2 mm 2 mps 757 mmHg 88%
    19:00 +27°C° 0,2 mm 2 mps 757 mmHg 92%
    20:00 +26°C° 0,3 mm 2 mps 757 mmHg 93%
    21:00 +26°C° 0,3 mm 2 mps 758 mmHg 93%
    22:00 +26°C° 0,3 mm 2 mps 758 mmHg 94%
    23:00 +26°C° 0,7 mm 1 mps 758 mmHg 95%

    Pasado mañana, 22 Octubre, Domingo

    Tiempo Temperatura Precipitaciones Viento Presión Humedad
    00:00 +26°C° 0,7 mm 1 mps 757 mmHg 95%
    01:00 +26°C° 0,7 mm 1 mps 757 mmHg 96%
    02:00 +25°C° 0,6 mm 1 mps 756 mmHg 96%
    03:00 +25°C° 0,6 mm 1 mps 756 mmHg 97%
    04:00 +25°C° 0,6 mm 1 mps 756 mmHg 97%
    05:00 +25°C° 0,3 mm 1 mps 756 mmHg 96%
    06:00 +26°C° 0,3 mm 1 mps 757 mmHg 94%
    07:00 +26°C° 0,3 mm 1 mps 757 mmHg 93%
    08:00 +28°C° 0,2 mm 2 mps 757 mmHg 86%
    09:00 +29°C° 0,2 mm 2 mps 758 mmHg 79%
    10:00 +31°C° 0,2 mm 2 mps 758 mmHg 72%
    11:00 +31°C° 0,4 mm 2 mps 757 mmHg 71%
    12:00 +31°C° 0,4 mm 2 mps 757 mmHg 70%
    13:00 +32°C° 0,4 mm 2 mps 756 mmHg 70%
    14:00 +31°C° 0,4 mm 2 mps 756 mmHg 72%
    15:00 +30°C° 0,4 mm 2 mps 756 mmHg 75%
    16:00 +29°C° 0,4 mm 2 mps 755 mmHg 78%
    17:00 +28°C° 0,2 mm 2 mps 756 mmHg 83%
    18:00 +27°C° 0,2 mm 2 mps 756 mmHg 88%
    19:00 +26°C° 0,2 mm 1 mps 756 mmHg 93%
    20:00 +26°C° 0,1 mm 1 mps 757 mmHg 94%
    21:00 +26°C° 0,1 mm 1 mps 757 mmHg 95%
    22:00 +25°C° 0,1 mm 1 mps 758 mmHg 95%
    23:00 +25°C° 0 mm 1 mps 758 mmHg 96%

    23 Octubre, Lunes

    Tiempo Temperatura Precipitaciones Viento Presión Humedad
    00:00 +25°C° 0 mm 1 mps 757 mmHg 96%
    01:00 +22°C° 0 mm 0 mps 757 mmHg 96%
    02:00 +24°C° 0 mm 1 mps 757 mmHg 96%
    03:00 +24°C° 0 mm 1 mps 757 mmHg 95%
    04:00 +24°C° 0 mm 1 mps 757 mmHg 95%
    05:00 +24°C° 0 mm 1 mps 757 mmHg 91%
    06:00 +25°C° 0 mm 1 mps 758 mmHg 88%
    07:00 +26°C° 0 mm 1 mps 758 mmHg 84%
    08:00 +28°C° 0 mm 1 mps 759 mmHg 72%
    09:00 +30°C° 0 mm 1 mps 759 mmHg 60%
    10:00 +34°C° 0 mm 2 mps 759 mmHg 48%
    11:00 +34°C° 0 mm 2 mps 759 mmHg 46%
    12:00 +35°C° 0 mm 2 mps 758 mmHg 45%
    13:00 +35°C° 0 mm 3 mps 758 mmHg 44%
    14:00 +34°C° 0 mm 3 mps 758 mmHg 48%
    15:00 +34°C° 0 mm 3 mps 757 mmHg 52%
    16:00 +33°C° 0 mm 3 mps 757 mmHg 55%
    17:00 +30°C° 0 mm 3 mps 758 mmHg 66%
    18:00 +28°C° 0 mm 3 mps 758 mmHg 76%
    19:00 +27°C° 0 mm 2 mps 759 mmHg 87%
    20:00 +26°C° 0 mm 2 mps 759 mmHg 89%
    21:00 +26°C° 0 mm 2 mps 760 mmHg 91%
    22:00 +26°C° 0 mm 2 mps 760 mmHg 93%
    23:00 +25°C° 0 mm 2 mps 760 mmHg 93%

    24 Octubre, Martes

    Tiempo Temperatura Precipitaciones Viento Presión Humedad
    00:00 +25°C° 0 mm 2 mps 759 mmHg 94%
    01:00 +25°C° 0 mm 1 mps 759 mmHg 94%
    02:00 +25°C° 0 mm 1 mps 759 mmHg 95%
    03:00 +25°C° 0 mm 1 mps 759 mmHg 96%
    04:00 +24°C° 0 mm 1 mps 759 mmHg 96%
    05:00 +25°C° 0 mm 1 mps 760 mmHg 94%
    06:00 +25°C° 0 mm 1 mps 760 mmHg 92%
    07:00 +26°C° 0 mm 2 mps 761 mmHg 91%
    08:00 +28°C° 0 mm 2 mps 761 mmHg 82%
    09:00 +29°C° 0 mm 3 mps 762 mmHg 73%
    10:00 +31°C° 0 mm 3 mps 762 mmHg 64%
    11:00 +33°C° 0,1 mm 3 mps 761 mmHg 61%
    12:00 +33°C° 0,1 mm 3 mps 761 mmHg 59%
    13:00 +34°C° 0,1 mm 4 mps 760 mmHg 57%
    14:00 +33°C° 0,1 mm 4 mps 760 mmHg 60%
    15:00 +31°C° 0,1 mm 3 mps 760 mmHg 64%
    16:00 +30°C° 0,1 mm 3 mps 760 mmHg 68%
    17:00 +29°C° 0 mm 3 mps 760 mmHg 74%
    18:00 +28°C° 0 mm 3 mps 761 mmHg 81%
    19:00 +26°C° 0 mm 2 mps 761 mmHg 88%
    20:00 +26°C° 0 mm 2 mps 762 mmHg 89%
    21:00 +25°C° 0 mm 2 mps 762 mmHg 91%
    22:00 +25°C° 0 mm 2 mps 762 mmHg 92%
    23:00 +25°C° 0 mm 2 mps 762 mmHg 92%

    25 Octubre, Miércoles

    Tiempo Temperatura Precipitaciones Viento Presión Humedad
    00:00 +25°C° 0 mm 2 mps 761 mmHg 92%
    01:00 +25°C° 0 mm 2 mps 761 mmHg 92%
    02:00 +24°C° 0 mm 2 mps 761 mmHg 93%
    03:00 +24°C° 0 mm 2 mps 761 mmHg 93%
    04:00 +24°C° 0 mm 2 mps 761 mmHg 94%
    05:00 +25°C° 0 mm 2 mps 761 mmHg 92%
    06:00 +25°C° 0 mm 2 mps 762 mmHg 89%
    07:00 +25°C° 0 mm 2 mps 762 mmHg 87%
    08:00 +27°C° 0 mm 3 mps 762 mmHg 77%
    09:00 +29°C° 0 mm 3 mps 762 mmHg 68%
    10:00 +31°C° 0 mm 3 mps 762 mmHg 59%
    11:00 +31°C° 0 mm 3 mps 762 mmHg 56%
    12:00 +33°C° 0 mm 3 mps 761 mmHg 53%
    13:00 +34°C° 0 mm 3 mps 761 mmHg 50%
    14:00 +33°C° 0 mm 3 mps 760 mmHg 52%
    15:00 +33°C° 0 mm 3 mps 760 mmHg 54%
    16:00 +31°C° 0 mm 3 mps 760 mmHg 56%
    17:00 +29°C° 0 mm 3 mps 760 mmHg 64%
    18:00 +27°C° 0 mm 2 mps 761 mmHg 72%
    19:00 +26°C° 0 mm 2 mps 761 mmHg 80%
    20:00 +25°C° 0 mm 2 mps 761 mmHg 83%
    21:00 +24°C° 0 mm 2 mps 762 mmHg 86%
    22:00 +24°C° 0 mm 2 mps 762 mmHg 90%
    23:00 +24°C° 0 mm 2 mps 762 mmHg 90%
    Mostrar más